Regional Weather Roundup
Issued by NWS Burlington, VT

Home | Current Version | Previous Version | Text Only | Print | Product List | Glossary On
Versions: 1 2 3 4 5 6 7 8 9 10 11 12 13 14 15 16 17 18 19 20 21 22 23 24 25 26 27 28 29 30 31 32 33 34 35 36 37 38 39 40 41 42 43 44 45 46 47 48 49 50
000
ASUS41 KBTV 201130
RWRBTV
VERMONT REGIONAL WEATHER ROUNDUP
NATIONAL WEATHER SERVICE BURLINGTON VT
600 AM EST SAT DEC 20 2014

NOTE: "FAIR" INDICATES FEW OR NO CLOUDS BELOW 12,000 FEET WITH NO
SIGNIFICANT WEATHER AND/OR OBSTRUCTIONS TO VISIBILITY.

* THESE REPORTS ARE NOT UNDER NWS QUALITY CONTROL AND/OR DO NOT
  REPORT WEATHER SUCH AS PRECIPITATION AND FOG.

VTZ001>019-201200-
_____VERMONT_____


CITY           SKY/WX    TMP DP  RH WIND       PRES   REMARKS
BURLINGTON     MOSUNNY   13   8  81 E6        30.28R
MONTPELIER     SUNNY      7   4  87 CALM      30.26R
MORRISVILLE    MOSUNNY    4  -1  80 CALM      30.27R
ST. JOHNSBURY*   N/A     10   6  84 MISG      30.25R
LYNDONVILLE*   FAIR       9   5  84 CALM      30.23R
MIDDLEBURY*    FAIR      12  11  98 CALM      30.26R
RUTLAND*       SUNNY     12   9  85 SE7       30.24R
SPRINGFIELD    SUNNY     16  13  88 CALM      30.26R
HIGHGATE*      FAIR       7   4  89 CALM      30.30S
NEWPORT*       FAIR       3   0  86 CALM      30.26R
BENNINGTON     SUNNY     16  13  88 S5        30.23R
SUTTON*          N/A      9 N/A N/A MISG        N/A
GALLUP MILLS*    N/A      3 N/A N/A MISG        N/A
UNION VILLAGE*   N/A     14 N/A N/A MISG        N/A
MT. MANSFIELD*   N/A     19 N/A N/A CALM        N/A

_____LAKE CHAMPLAIN_____


CITY           SKY/WX    TMP DP  RH WIND       PRES   REMARKS
BURTON ISLAND*   N/A     19  16  86 N1          N/A
COLCHESTER RF*   N/A     23  21  93 N7          N/A

$$

NYZ007-026>031-035-052-083-201200-
_____NORTHERN NEW YORK_____


CITY           SKY/WX    TMP DP  RH WIND       PRES   REMARKS
PLATTSBURGH    CLOUDY    12   8  84 CALM      30.30R
SARANAC LAKE   CLOUDY    11  32 100 CALM      30.14S
MASSENA        MOSUNNY    4  -1  80 CALM      30.30R
OGDENSBURG*    SUNNY      9   7  92 CALM      30.28R
POTSDAM*       SUNNY      3   1  92 CALM      30.27R
STARK FALLS*     N/A     10 N/A N/A CALM        N/A
WATERTOWN      SUNNY     15   8  73 CALM      30.28R
FT DRUM        MOSUNNY   11   8  85 SE6       30.24R
ALBANY         PTSUNNY   25  16  68 N6        30.29R
GLENS FALLS    PTSUNNY   19  15  84 CALM      30.28R

$$
NHZ002-005-011-201200-
_____NEW HAMPSHIRE_____


CITY           SKY/WX    TMP DP  RH WIND       PRES   REMARKS
LEBANON        SUNNY     15  11  83 CALM      30.25R
KEENE          SUNNY     19  18  93 CALM      30.25R
MT WASHINGTON  MOSUNNY   23  -2  33 E17         N/A  WCI   9
PLYMOUTH       FAIR      19  18  98 NW5       30.25R
WHITEFIELD     CLOUDY    10   7  87 NW3       30.22R

$$

_____REGIONAL QUEBEC LOCATIONS_____


CITY           SKY/WX    TMP DP  RH WIND       PRES   REMARKS
MONTREAL       SUNNY      9   5  85 CALM      30.31R
QUEBEC CITY    CLOUDY     5   0  78 W2        30.32R FOG
SHERBROOKE     CLOUDY     5   3  92 VRB2      30.27R

_____REGIONAL ONTARIO LOCATIONS_____


CITY           SKY/WX    TMP DP  RH WIND       PRES   REMARKS
OTTAWA         SUNNY      5   3  92 W5        30.29R

______KEY______
VSB  - VISIBILITY IN MILES
WCI  - WIND CHILL INDEX
HX   - HEAT INDEX
$$
NNNN


USA.gov is the U.S. government's official web portal to all federal, state and local government web resources and services.